Home > Weather > Virginia Beach > Past weeks

Flag for USA Weather for the Past 2 Weeks in Virginia Beach, Virginia, USA

Now
57 °F

Low clouds.


Feels Like: 53 °F
Forecast: 54 / 58 °F
Wind: 21 mph from Northeast

Location: Virginia Beach - Oceana

Current Time: May 5, 2016 at 4:42:25 PM

Latest Report: May 5, 2016 at 3:56 PM


Visibility: 10 mi

Pressure: 29.55 "Hg

Humidity: 69%

Dew Point: 47 °F

Location of Virginia BeachLocation

Historic Weather in Virginia Beach — Graph

°F

Virginia Beach Temperature Yesterday

Maximum temperature yesterday: 66 °F (at 2:56 PM)
Minimum temperature yesterday: 56 °F (at 11:56 PM)
Average temperature yesterday: 61 °F

High & Low Weather Summary for the Past Weeks

 TemperatureHumidityPressure
High89 °F (May 2, 2:56 PM)87% (Apr 23, 6:56 AM)30.28 "Hg (Apr 23, 6:56 AM)
Low44 °F (Apr 21, 5:56 AM)27% (Apr 20, 2:56 PM)29.57 "Hg (May 5, 1:56 PM)
Average65 °F68%29.94 "Hg
* Reported Apr 20 2:56 PM — May 5 2:56 PM, Virginia Beach, Weather by CustomWeather, © 2016

Note: Actual official high and low records may vary slightly from our data, if they occured in-between our weather recording intervals... More about our weather records

Advertising

Virginia Beach Weather History for the Previous 24 Hours

Scroll right to see more
 ConditionsComfort  
Time TempWeatherWind HumidityBarometerVisibility
2:56 PM
Thu, May 5
56 °FLow clouds.21 mph72%29.57 "Hg9 mi
1:56 PM57 °FLow clouds.17 mph69%29.57 "Hg10 mi
12:56 PM57 °FLow clouds.21 mph69%29.57 "Hg10 mi
11:56 AM56 °FLow clouds.20 mph75%29.59 "Hg10 mi
10:56 AM56 °FLow clouds.20 mph75%29.60 "Hg10 mi
9:56 AM55 °FLow clouds.15 mph77%29.60 "Hg10 mi
8:56 AM54 °FLow clouds.15 mph80%29.60 "Hg10 mi
7:56 AM54 °FLow clouds.15 mph80%29.60 "Hg8 mi
6:56 AM54 °FFog.17 mph83%29.59 "Hg5 mi
5:56 AM55 °FFog.13 mph80%29.59 "Hg6 mi
4:56 AM56 °FFog.13 mph81%29.58 "Hg6 mi
3:56 AM56 °FFog.14 mph81%29.58 "Hg4 mi
2:56 AM56 °FFog.14 mph84%29.62 "Hg6 mi
1:56 AM56 °FFog.10 mph84%29.62 "Hg4 mi
12:56 AM56 °FFog.10 mph84%29.65 "Hg5 mi
11:56 PM
Wed, May 4
56 °FFog.9 mph84%29.65 "Hg5 mi
10:56 PM57 °FFog.8 mph81%29.67 "Hg5 mi
9:56 PM57 °FFog.15 mph81%29.67 "Hg6 mi
8:56 PM58 °FFog.12 mph81%29.64 "Hg6 mi
7:56 PM59 °FFog.10 mph78%29.64 "Hg2 mi
6:56 PM59 °FFog.10 mph81%29.64 "Hg2 mi
5:56 PM61 °FFog.9 mph81%29.64 "Hg4 mi
4:56 PM64 °FOvercast.10 mph75%29.61 "Hg10 mi
Weather by CustomWeather, © 2016

See weather overviewHow to use our weather pages